TimePDT,TemperatureF,Dew PointF,Humidity,Sea Level PressureIn,VisibilityMPH,Wind Direction,Wind SpeedMPH,Gust SpeedMPH,PrecipitationIn,Events,Conditions,WindDirDegrees,DateUTC
12:52 AM,82.9,46.9,28,29.66,10.0,NNW,18.4,25.3,N/A,,Clear,330,2013-06-21 07:52:00
1:52 AM,82.9,46.0,27,29.66,10.0,NNW,13.8,21.9,N/A,,Clear,340,2013-06-21 08:52:00
2:52 AM,80.1,44.1,28,29.66,10.0,NW,8.1,-,N/A,,Clear,320,2013-06-21 09:52:00
3:52 AM,80.1,42.1,26,29.65,10.0,NW,13.8,20.7,N/A,,Clear,310,2013-06-21 10:52:00
4:52 AM,78.1,41.0,27,29.66,10.0,NW,10.4,-,N/A,,Clear,310,2013-06-21 11:52:00
5:52 AM,80.1,39.9,24,29.69,10.0,NW,10.4,19.6,N/A,,Clear,320,2013-06-21 12:52:00
6:52 AM,73.0,48.9,42,29.71,10.0,SSE,3.5,-,N/A,,Clear,160,2013-06-21 13:52:00
7:52 AM,81.0,46.0,29,29.74,10.0,ESE,4.6,-,N/A,,Clear,120,2013-06-21 14:52:00
8:52 AM,84.0,54.0,35,29.75,10.0,SSE,5.8,-,N/A,,Clear,160,2013-06-21 15:52:00
9:52 AM,89.1,48.9,25,29.76,10.0,Variable,3.5,-,N/A,,Clear,0,2013-06-21 16:52:00
10:52 AM,93.0,46.9,20,29.76,10.0,East,4.6,-,N/A,,Clear,100,2013-06-21 17:52:00
11:52 AM,95.0,43.0,17,29.74,10.0,ESE,6.9,-,N/A,,Clear,110,2013-06-21 18:52:00
12:52 PM,97.0,48.9,19,29.73,10.0,SSE,9.2,-,N/A,,Clear,160,2013-06-21 19:52:00
1:52 PM,98.1,42.1,15,29.71,10.0,SE,8.1,-,N/A,,Clear,140,2013-06-21 20:52:00
2:52 PM,100.0,41.0,13,29.68,10.0,NNE,3.5,-,N/A,,Clear,30,2013-06-21 21:52:00
3:52 PM,100.9,39.9,12,29.66,10.0,Variable,3.5,-,N/A,,Clear,0,2013-06-21 22:52:00
4:52 PM,102.0,37.0,11,29.64,10.0,Calm,Calm,-,N/A,,Clear,0,2013-06-21 23:52:00
5:52 PM,100.9,39.0,12,29.62,10.0,SSE,6.9,-,N/A,,Clear,160,2013-06-22 00:52:00
6:52 PM,100.0,37.9,12,29.65,10.0,NW,3.5,-,N/A,,Clear,320,2013-06-22 01:52:00
7:52 PM,93.9,41.0,16,29.63,10.0,NW,16.1,23.0,N/A,,Clear,320,2013-06-22 02:52:00
8:52 PM,90.0,43.0,19,29.66,10.0,NW,16.1,25.3,N/A,,Clear,320,2013-06-22 03:52:00
9:52 PM,87.1,44.1,22,29.65,9.0,NNW,21.9,29.9,N/A,,Clear,330,2013-06-22 04:52:00
10:52 PM,86.0,44.1,23,29.65,10.0,NNW,20.7,31.1,N/A,,Clear,340,2013-06-22 05:52:00
11:52 PM,84.9,43.0,23,29.67,10.0,NNW,15.0,21.9,N/A,,Clear,330,2013-06-22 06:52:00